LAN234 SCQP-SCEL

Flight info

Callsign LAN234
Flight time 1h 8m
Altitude 36000
Route KETIR3C KETIR UQ802 EROLO EROLO2D
Aircraft A320/M-SDE3FGHIRWY/LB1

Departure

Time 2026-05-06 00:10
Airport La Araucanía International Airport (SCQP)

Arrival

Time 2026-05-06 01:19
Airport Comodoro Arturo Merino Benítez International Airport (SCEL)
Time Latitude Longitude Altitude Speed Heading
2026-05-05 23:25 -38.92705 -72.64764 314 ft 0 kts 107°
2026-05-05 23:49 -38.92698 -72.64793 313 ft 4 kts 104°
2026-05-05 23:49 -38.92692 -72.64826 313 ft 4 kts 99°
2026-05-05 23:49 -38.92690 -72.64861 313 ft 4 kts 82°
2026-05-05 23:49 -38.92698 -72.64888 313 ft 3 kts 25°
2026-05-05 23:50 -38.92702 -72.64890 313 ft 0 kts 17°
2026-05-05 23:58 -38.92690 -72.64886 313 ft 7 kts 17°
2026-05-05 23:58 -38.92638 -72.64865 313 ft 6 kts 17°
2026-05-05 23:59 -38.92608 -72.64853 312 ft 6 kts 18°
2026-05-05 23:59 -38.92576 -72.64840 312 ft 4 kts 18°
2026-05-05 23:59 -38.92547 -72.64828 313 ft 3 kts 18°
2026-05-05 23:59 -38.92520 -72.64816 313 ft 4 kts 18°
2026-05-06 00:00 -38.92499 -72.64808 313 ft 4 kts 18°
2026-05-06 00:00 -38.92485 -72.64802 313 ft 0 kts 18°
2026-05-06 00:00 -38.92468 -72.64794 313 ft 3 kts 18°
2026-05-06 00:00 -38.92452 -72.64790 313 ft 4 kts
2026-05-06 00:01 -38.92436 -72.64792 313 ft 3 kts 352°
2026-05-06 00:01 -38.92407 -72.64818 313 ft 4 kts 302°
2026-05-06 00:01 -38.92398 -72.64849 313 ft 4 kts 290°
2026-05-06 00:01 -38.92385 -72.64899 313 ft 5 kts 288°
2026-05-06 00:02 -38.92380 -72.64921 311 ft 0 kts 288°
2026-05-06 00:02 -38.92376 -72.64934 313 ft 0 kts 288°
2026-05-06 00:04 -38.92373 -72.64945 313 ft 5 kts 288°
2026-05-06 00:04 -38.92362 -72.64990 313 ft 3 kts 289°
2026-05-06 00:05 -38.92309 -72.65033 314 ft 5 kts 348°
2026-05-06 00:05 -38.92260 -72.65031 314 ft 9 kts 12°
2026-05-06 00:05 -38.92219 -72.65015 312 ft 5 kts 17°
2026-05-06 00:06 -38.92162 -72.64992 314 ft 8 kts 17°
2026-05-06 00:06 -38.92124 -72.64977 313 ft 5 kts 17°
2026-05-06 00:06 -38.92076 -72.64957 313 ft 10 kts 18°
2026-05-06 00:06 -38.92005 -72.64929 314 ft 10 kts 16°
2026-05-06 00:07 -38.91925 -72.64899 313 ft 11 kts 16°
2026-05-06 00:07 -38.91870 -72.64879 315 ft 7 kts 16°
2026-05-06 00:07 -38.91797 -72.64851 314 ft 13 kts 17°
2026-05-06 00:07 -38.91721 -72.64821 315 ft 10 kts 17°
2026-05-06 00:08 -38.91649 -72.64793 313 ft 10 kts 15°
2026-05-06 00:08 -38.91594 -72.64803 312 ft 6 kts 352°
2026-05-06 00:08 -38.91564 -72.64798 312 ft 4 kts 18°
2026-05-06 00:08 -38.91545 -72.64773 312 ft 2 kts 70°
2026-05-06 00:09 -38.91551 -72.64755 311 ft 4 kts 129°
2026-05-06 00:09 -38.91560 -72.64754 312 ft 0 kts 188°
2026-05-06 00:10 -38.91612 -72.64768 312 ft 36 kts 194°
2026-05-06 00:10 -38.92087 -72.64968 314 ft 105 kts 197°
2026-05-06 00:10 -38.92967 -72.65305 381 ft 152 kts 194°
2026-05-06 00:10 -38.94019 -72.65634 942 ft 158 kts 189°
2026-05-06 00:11 -38.95097 -72.65440 1594 ft 159 kts 150°
2026-05-06 00:11 -38.95821 -72.64433 2230 ft 155 kts 110°
2026-05-06 00:11 -38.95939 -72.63003 2573 ft 173 kts 75°
2026-05-06 00:11 -38.95285 -72.61629 2902 ft 192 kts 39°
2026-05-06 00:12 -38.94046 -72.60914 3139 ft 214 kts
2026-05-06 00:12 -38.92429 -72.61211 3312 ft 248 kts 343°
2026-05-06 00:12 -38.90764 -72.61991 3850 ft 265 kts 338°
2026-05-06 00:12 -38.89054 -72.62895 4178 ft 268 kts 339°
2026-05-06 00:13 -38.87197 -72.63291 5182 ft 270 kts
2026-05-06 00:13 -38.85339 -72.63117 6183 ft 272 kts
2026-05-06 00:13 -38.83453 -72.62812 7142 ft 276 kts
2026-05-06 00:13 -38.81553 -72.62316 8088 ft 280 kts 10°
2026-05-06 00:14 -38.79646 -72.61757 9000 ft 284 kts 11°
2026-05-06 00:14 -38.77707 -72.61170 9885 ft 288 kts 11°
2026-05-06 00:14 -38.75706 -72.60567 10453 ft 306 kts 10°
2026-05-06 00:14 -38.73557 -72.59930 10765 ft 329 kts 10°
2026-05-06 00:15 -38.71273 -72.59255 11368 ft 340 kts 10°
2026-05-06 00:15 -38.68952 -72.58569 12153 ft 345 kts
2026-05-06 00:15 -38.66597 -72.57874 12934 ft 348 kts
2026-05-06 00:15 -38.64250 -72.57187 13685 ft 352 kts
2026-05-06 00:16 -38.61855 -72.56486 14422 ft 356 kts
2026-05-06 00:16 -38.59422 -72.55773 15176 ft 359 kts
2026-05-06 00:16 -38.56967 -72.55056 15898 ft 363 kts
2026-05-06 00:16 -38.54489 -72.54333 16610 ft 366 kts
2026-05-06 00:17 -38.51999 -72.53607 17285 ft 370 kts
2026-05-06 00:17 -38.49476 -72.52872 17954 ft 373 kts
2026-05-06 00:17 -38.46967 -72.52140 18592 ft 376 kts
2026-05-06 00:17 -38.44368 -72.51381 19220 ft 379 kts
2026-05-06 00:18 -38.41827 -72.50638 19809 ft 382 kts
2026-05-06 00:18 -38.39217 -72.49877 20375 ft 386 kts
2026-05-06 00:18 -38.36571 -72.49112 20955 ft 389 kts
2026-05-06 00:18 -38.33928 -72.48347 21497 ft 392 kts
2026-05-06 00:19 -38.31252 -72.47571 22022 ft 395 kts
2026-05-06 00:19 -38.28566 -72.46791 22529 ft 398 kts
2026-05-06 00:19 -38.25847 -72.46002 23047 ft 401 kts
2026-05-06 00:19 -38.23140 -72.45227 23520 ft 404 kts
2026-05-06 00:20 -38.20390 -72.44453 24011 ft 407 kts
2026-05-06 00:20 -38.17604 -72.43676 24485 ft 410 kts
2026-05-06 00:20 -38.14799 -72.42898 24961 ft 413 kts
2026-05-06 00:20 -38.11978 -72.42118 25429 ft 415 kts
2026-05-06 00:21 -38.09141 -72.41329 25881 ft 417 kts
2026-05-06 00:21 -38.06290 -72.40534 26312 ft 420 kts
2026-05-06 00:21 -38.03461 -72.39745 26739 ft 422 kts
2026-05-06 00:21 -38.00592 -72.38947 27170 ft 424 kts
2026-05-06 00:22 -37.97680 -72.38137 27599 ft 426 kts
2026-05-06 00:22 -37.94800 -72.37333 27997 ft 428 kts
2026-05-06 00:22 -37.91865 -72.36511 28395 ft 430 kts
2026-05-06 00:22 -37.88925 -72.35687 28762 ft 432 kts
2026-05-06 00:23 -37.85978 -72.34865 29126 ft 434 kts
2026-05-06 00:23 -37.83046 -72.34052 29489 ft 435 kts
2026-05-06 00:23 -37.80083 -72.33234 29821 ft 437 kts
2026-05-06 00:23 -37.77098 -72.32411 30167 ft 439 kts
2026-05-06 00:24 -37.74101 -72.31586 30486 ft 441 kts
2026-05-06 00:24 -37.71136 -72.30766 30858 ft 441 kts
2026-05-06 00:24 -37.68109 -72.29926 31278 ft 440 kts
2026-05-06 00:24 -37.65150 -72.29108 31659 ft 440 kts
2026-05-06 00:25 -37.62166 -72.28268 32041 ft 441 kts
2026-05-06 00:25 -37.59176 -72.27374 32419 ft 441 kts
2026-05-06 00:25 -37.56190 -72.26447 32785 ft 441 kts
2026-05-06 00:25 -37.53217 -72.25512 33145 ft 441 kts
2026-05-06 00:26 -37.50232 -72.24577 33501 ft 441 kts
2026-05-06 00:26 -37.47260 -72.23655 33851 ft 441 kts
2026-05-06 00:26 -37.45278 -72.23045 34074 ft 441 kts
2026-05-06 00:26 -37.42291 -72.22132 34423 ft 441 kts
2026-05-06 00:27 -37.39292 -72.21219 34769 ft 441 kts
2026-05-06 00:27 -37.35364 -72.20027 35228 ft 440 kts
2026-05-06 00:27 -37.33343 -72.19418 35450 ft 440 kts
2026-05-06 00:27 -37.30372 -72.18524 35761 ft 440 kts
2026-05-06 00:28 -37.27384 -72.17626 35941 ft 441 kts
2026-05-06 00:28 -37.21460 -72.15835 35971 ft 440 kts
2026-05-06 00:29 -37.15504 -72.14027 35960 ft 440 kts
2026-05-06 00:29 -37.09543 -72.12222 35962 ft 440 kts
2026-05-06 00:30 -37.03576 -72.10417 35962 ft 440 kts
2026-05-06 00:30 -36.97621 -72.08624 35959 ft 440 kts
2026-05-06 00:31 -36.91679 -72.06842 35957 ft 440 kts
2026-05-06 00:31 -36.85715 -72.05058 35955 ft 440 kts
2026-05-06 00:32 -36.79806 -72.03287 35955 ft 439 kts
2026-05-06 00:32 -36.73845 -72.01508 35955 ft 439 kts
2026-05-06 00:33 -36.67901 -71.99735 35956 ft 439 kts
2026-05-06 00:33 -36.61952 -71.97959 35952 ft 439 kts
2026-05-06 00:34 -36.56032 -71.96194 35948 ft 439 kts
2026-05-06 00:34 -36.50086 -71.94434 35944 ft 439 kts
2026-05-06 00:35 -36.44139 -71.92669 35946 ft 439 kts
2026-05-06 00:35 -36.38181 -71.90904 35948 ft 439 kts
2026-05-06 00:36 -36.32246 -71.89147 35950 ft 439 kts
2026-05-06 00:36 -36.26293 -71.87384 35953 ft 439 kts
2026-05-06 00:37 -36.20358 -71.85635 35955 ft 439 kts
2026-05-06 00:37 -36.14443 -71.83891 35956 ft 439 kts
2026-05-06 00:38 -36.08494 -71.82147 35956 ft 439 kts
2026-05-06 00:38 -36.02521 -71.80402 35957 ft 439 kts
2026-05-06 00:39 -35.96577 -71.78658 35958 ft 439 kts
2026-05-06 00:39 -35.90646 -71.76916 35959 ft 439 kts
2026-05-06 00:40 -35.84707 -71.75184 35957 ft 438 kts
2026-05-06 00:40 -35.78772 -71.73457 35954 ft 438 kts
2026-05-06 00:41 -35.72839 -71.71733 35956 ft 438 kts
2026-05-06 00:41 -35.66906 -71.70006 35957 ft 438 kts
2026-05-06 00:42 -35.60997 -71.68295 35962 ft 438 kts
2026-05-06 00:42 -35.55052 -71.66570 35967 ft 439 kts
2026-05-06 00:43 -35.49122 -71.64847 35968 ft 439 kts
2026-05-06 00:43 -35.43164 -71.63126 35977 ft 439 kts
2026-05-06 00:44 -35.37213 -71.61407 35982 ft 439 kts
2026-05-06 00:44 -35.31249 -71.59679 35986 ft 439 kts
2026-05-06 00:45 -35.25337 -71.57972 35985 ft 439 kts
2026-05-06 00:45 -35.19382 -71.56270 35896 ft 441 kts
2026-05-06 00:45 -35.16391 -71.55418 35649 ft 440 kts
2026-05-06 00:46 -35.13411 -71.54569 35393 ft 440 kts
2026-05-06 00:46 -35.10422 -71.53710 35136 ft 440 kts
2026-05-06 00:46 -35.07449 -71.52851 34891 ft 440 kts
2026-05-06 00:46 -35.04466 -71.51991 34641 ft 439 kts
2026-05-06 00:47 -35.01483 -71.51136 34390 ft 440 kts
2026-05-06 00:47 -34.98511 -71.50288 34141 ft 440 kts
2026-05-06 00:47 -34.95527 -71.49436 33895 ft 439 kts
2026-05-06 00:47 -34.92587 -71.48594 33643 ft 439 kts
2026-05-06 00:48 -34.89605 -71.47741 33389 ft 439 kts
2026-05-06 00:48 -34.86614 -71.46889 33141 ft 440 kts
2026-05-06 00:48 -34.83649 -71.46046 32894 ft 440 kts
2026-05-06 00:48 -34.80655 -71.45197 32644 ft 441 kts
2026-05-06 00:49 -34.77671 -71.44351 32282 ft 441 kts
2026-05-06 00:49 -34.74681 -71.43500 31455 ft 441 kts
2026-05-06 00:49 -34.71694 -71.42649 30603 ft 442 kts
2026-05-06 00:49 -34.68707 -71.41798 30000 ft 437 kts
2026-05-06 00:50 -34.65742 -71.40939 29125 ft 440 kts
2026-05-06 00:50 -34.62835 -71.39677 28339 ft 444 kts 16°
2026-05-06 00:50 -34.59986 -71.38274 27614 ft 441 kts 16°
2026-05-06 00:50 -34.57188 -71.36892 26952 ft 437 kts 17°
2026-05-06 00:51 -34.54389 -71.35505 26299 ft 434 kts 17°
2026-05-06 00:51 -34.51639 -71.34141 25659 ft 429 kts 17°
2026-05-06 00:51 -34.48891 -71.32783 24996 ft 425 kts 17°
2026-05-06 00:51 -34.46156 -71.31441 24357 ft 421 kts 17°
2026-05-06 00:52 -34.43431 -71.30108 23722 ft 418 kts 17°
2026-05-06 00:52 -34.40757 -71.28797 23107 ft 414 kts 17°
2026-05-06 00:52 -34.38116 -71.27500 22399 ft 406 kts 17°
2026-05-06 00:52 -34.35513 -71.26222 21329 ft 400 kts 17°
2026-05-06 00:53 -34.32947 -71.24967 20300 ft 394 kts 17°
2026-05-06 00:53 -34.30431 -71.23743 19281 ft 387 kts 18°
2026-05-06 00:53 -34.27944 -71.22535 18296 ft 381 kts 18°
2026-05-06 00:53 -34.25508 -71.21349 17320 ft 376 kts 18°
2026-05-06 00:54 -34.23098 -71.20169 16374 ft 370 kts 18°
2026-05-06 00:54 -34.20734 -71.19011 15436 ft 365 kts 18°
2026-05-06 00:54 -34.18423 -71.17880 14503 ft 359 kts 19°
2026-05-06 00:54 -34.16079 -71.16733 13535 ft 353 kts 19°
2026-05-06 00:55 -34.13870 -71.15654 12740 ft 345 kts 19°
2026-05-06 00:55 -34.11666 -71.14584 11960 ft 336 kts 19°
2026-05-06 00:55 -34.09507 -71.13538 11082 ft 331 kts 20°
2026-05-06 00:55 -34.07370 -71.12502 10339 ft 330 kts 20°
2026-05-06 00:56 -34.05237 -71.11465 10108 ft 333 kts 20°
2026-05-06 00:56 -34.03082 -71.10415 9961 ft 328 kts 21°
2026-05-06 00:56 -34.01074 -71.09436 9986 ft 298 kts 20°
2026-05-06 00:56 -33.99168 -71.08511 10000 ft 292 kts 20°
2026-05-06 00:57 -33.97293 -71.07604 9994 ft 290 kts 20°
2026-05-06 00:57 -33.95418 -71.06697 10003 ft 290 kts 20°
2026-05-06 00:57 -33.93548 -71.05792 9995 ft 290 kts 20°
2026-05-06 00:57 -33.91657 -71.04878 9995 ft 290 kts 20°
2026-05-06 00:58 -33.89795 -71.03979 9992 ft 290 kts 20°
2026-05-06 00:58 -33.87941 -71.03081 10003 ft 290 kts 20°
2026-05-06 00:58 -33.86046 -71.02163 9995 ft 290 kts 20°
2026-05-06 00:58 -33.84192 -71.01267 9996 ft 290 kts 20°
2026-05-06 00:59 -33.82313 -71.00358 10006 ft 291 kts 20°
2026-05-06 00:59 -33.80438 -70.99454 10014 ft 291 kts 20°
2026-05-06 00:59 -33.78556 -70.98546 10010 ft 291 kts 20°
2026-05-06 00:59 -33.76676 -70.97637 10015 ft 291 kts 20°
2026-05-06 01:00 -33.74805 -70.96732 10000 ft 290 kts 20°
2026-05-06 01:00 -33.72928 -70.95824 10000 ft 290 kts 20°
2026-05-06 01:00 -33.71059 -70.94923 10000 ft 290 kts 20°
2026-05-06 01:00 -33.69184 -70.94027 10010 ft 289 kts 20°
2026-05-06 01:01 -33.67317 -70.93131 10000 ft 290 kts 20°
2026-05-06 01:01 -33.65440 -70.92226 10010 ft 290 kts 20°
2026-05-06 01:01 -33.63560 -70.91318 10000 ft 291 kts 21°
2026-05-06 01:01 -33.61706 -70.90422 10005 ft 290 kts 20°
2026-05-06 01:02 -33.59827 -70.89515 10019 ft 291 kts 20°
2026-05-06 01:02 -33.57960 -70.88617 10019 ft 291 kts 20°
2026-05-06 01:02 -33.56119 -70.87600 10018 ft 291 kts 28°
2026-05-06 01:02 -33.54389 -70.86337 10013 ft 292 kts 30°
2026-05-06 01:03 -33.52661 -70.85055 10006 ft 292 kts 30°
2026-05-06 01:03 -33.50929 -70.83774 10008 ft 292 kts 30°
2026-05-06 01:03 -33.49203 -70.82502 10004 ft 292 kts 30°
2026-05-06 01:03 -33.47468 -70.81226 10004 ft 292 kts 30°
2026-05-06 01:04 -33.45704 -70.80014 10007 ft 291 kts 24°
2026-05-06 01:04 -33.43811 -70.79192 10001 ft 290 kts 13°
2026-05-06 01:04 -33.41817 -70.78811 9900 ft 289 kts
2026-05-06 01:04 -33.39799 -70.78852 9771 ft 288 kts 358°
2026-05-06 01:05 -33.37831 -70.78477 9645 ft 289 kts 22°
2026-05-06 01:05 -33.36081 -70.77369 9520 ft 279 kts 30°
2026-05-06 01:05 -33.34455 -70.76203 9485 ft 265 kts 30°
2026-05-06 01:05 -33.32953 -70.75114 9483 ft 250 kts 30°
2026-05-06 01:06 -33.31484 -70.74047 9483 ft 245 kts 30°
2026-05-06 01:06 -33.30036 -70.72995 9482 ft 244 kts 30°
2026-05-06 01:06 -33.28585 -70.71942 9484 ft 243 kts 30°
2026-05-06 01:06 -33.27041 -70.70826 9492 ft 277 kts 30°
2026-05-06 01:07 -33.25345 -70.69605 9495 ft 288 kts 30°
2026-05-06 01:07 -33.23615 -70.68362 9493 ft 290 kts 30°
2026-05-06 01:07 -33.21886 -70.67120 9493 ft 291 kts 30°
2026-05-06 01:07 -33.20146 -70.65873 9491 ft 291 kts 30°
2026-05-06 01:08 -33.18408 -70.64626 9478 ft 290 kts 30°
2026-05-06 01:08 -33.16661 -70.63400 9479 ft 289 kts 26°
2026-05-06 01:08 -33.14801 -70.62754 9476 ft 274 kts
2026-05-06 01:08 -33.12984 -70.62500 9471 ft 257 kts
2026-05-06 01:09 -33.11251 -70.62291 9470 ft 243 kts
2026-05-06 01:09 -33.09597 -70.62094 9462 ft 229 kts
2026-05-06 01:09 -33.08066 -70.61912 9459 ft 219 kts
2026-05-06 01:09 -33.06568 -70.61735 9366 ft 215 kts
2026-05-06 01:10 -33.05079 -70.61685 9132 ft 213 kts 346°
2026-05-06 01:10 -33.03800 -70.62505 8891 ft 212 kts 311°
2026-05-06 01:10 -33.03162 -70.64064 8632 ft 213 kts 279°
2026-05-06 01:10 -33.03228 -70.65811 8343 ft 212 kts 250°
2026-05-06 01:11 -33.04107 -70.67217 8083 ft 216 kts 217°
2026-05-06 01:11 -33.05356 -70.68212 7825 ft 217 kts 215°
2026-05-06 01:11 -33.06569 -70.69280 7592 ft 216 kts 218°
2026-05-06 01:11 -33.07742 -70.70398 7361 ft 215 kts 219°
2026-05-06 01:12 -33.08898 -70.71519 7126 ft 214 kts 219°
2026-05-06 01:12 -33.10056 -70.72640 6898 ft 213 kts 219°
2026-05-06 01:12 -33.10817 -70.73376 6754 ft 213 kts 219°
2026-05-06 01:12 -33.12346 -70.74849 6448 ft 212 kts 219°
2026-05-06 01:13 -33.13482 -70.75943 6306 ft 204 kts 219°
2026-05-06 01:13 -33.14556 -70.76974 6181 ft 194 kts 218°
2026-05-06 01:13 -33.15252 -70.77641 6083 ft 187 kts 219°
2026-05-06 01:13 -33.16247 -70.78596 5950 ft 179 kts 219°
2026-05-06 01:14 -33.18101 -70.80373 5687 ft 166 kts 216°
2026-05-06 01:14 -33.19097 -70.81014 5542 ft 161 kts 198°
2026-05-06 01:14 -33.20218 -70.81192 5197 ft 169 kts 180°
2026-05-06 01:15 -33.21442 -70.81185 4762 ft 181 kts 178°
2026-05-06 01:15 -33.22715 -70.81137 4421 ft 183 kts 177°
2026-05-06 01:15 -33.23966 -70.81077 4150 ft 176 kts 177°
2026-05-06 01:15 -33.25161 -70.81015 3906 ft 168 kts 177°
2026-05-06 01:16 -33.26307 -70.80954 3690 ft 161 kts 177°
2026-05-06 01:16 -33.27410 -70.80896 3481 ft 156 kts 177°
2026-05-06 01:16 -33.28489 -70.80838 3276 ft 154 kts 177°
2026-05-06 01:16 -33.29552 -70.80782 3078 ft 152 kts 177°
2026-05-06 01:17 -33.30611 -70.80725 2871 ft 152 kts 176°
2026-05-06 01:17 -33.31665 -70.80668 2672 ft 151 kts 175°
2026-05-06 01:17 -33.32704 -70.80613 2472 ft 148 kts 175°
2026-05-06 01:17 -33.33721 -70.80558 2277 ft 146 kts 176°
2026-05-06 01:18 -33.34717 -70.80505 2085 ft 145 kts 176°
2026-05-06 01:18 -33.35718 -70.80450 1889 ft 144 kts 176°
2026-05-06 01:18 -33.36720 -70.80390 1702 ft 144 kts 176°
2026-05-06 01:18 -33.37705 -70.80329 1589 ft 133 kts 175°
2026-05-06 01:19 -33.38370 -70.80305 1573 ft 52 kts 178°
2026-05-06 01:19 -33.38596 -70.80293 1574 ft 24 kts 176°
2026-05-06 01:19 -33.38766 -70.80282 1575 ft 24 kts 176°
2026-05-06 01:19 -33.38923 -70.80273 1574 ft 20 kts 178°
2026-05-06 01:20 -33.39022 -70.80271 1574 ft 12 kts 179°
2026-05-06 01:20 -33.39106 -70.80268 1574 ft 13 kts 178°
2026-05-06 01:20 -33.39189 -70.80263 1573 ft 10 kts 174°
2026-05-06 01:20 -33.39254 -70.80242 1572 ft 10 kts 158°
2026-05-06 01:21 -33.39296 -70.80220 1572 ft 5 kts 156°
2026-05-06 01:21 -33.39327 -70.80202 1571 ft 5 kts 153°
2026-05-06 01:21 -33.39359 -70.80181 1571 ft 6 kts 151°
2026-05-06 01:21 -33.39395 -70.80154 1569 ft 7 kts 145°
2026-05-06 01:22 -33.39437 -70.80119 1568 ft 8 kts 145°
2026-05-06 01:22 -33.39484 -70.80081 1566 ft 8 kts 145°
2026-05-06 01:22 -33.39519 -70.80030 1566 ft 8 kts 116°
2026-05-06 01:22 -33.39530 -70.79971 1565 ft 7 kts 92°
2026-05-06 01:23 -33.39530 -70.79917 1565 ft 6 kts 88°
2026-05-06 01:23 -33.39529 -70.79870 1565 ft 5 kts 88°
2026-05-06 01:23 -33.39527 -70.79830 1565 ft 4 kts 88°
2026-05-06 01:23 -33.39527 -70.79797 1565 ft 4 kts 88°
2026-05-06 01:24 -33.39526 -70.79771 1565 ft 3 kts 88°
2026-05-06 01:24 -33.39525 -70.79749 1565 ft 3 kts 88°
2026-05-06 01:24 -33.39525 -70.79730 1565 ft 3 kts 88°
2026-05-06 01:24 -33.39533 -70.79706 1565 ft 3 kts 140°
2026-05-06 01:25 -33.39545 -70.79702 1565 ft 1 kts 167°
2026-05-06 01:25 -33.39552 -70.79700 1565 ft 1 kts 171°
2026-05-06 01:25 -33.39564 -70.79699 1565 ft 2 kts 177°
2026-05-06 01:25 -33.39574 -70.79699 1565 ft 1 kts 177°
2026-05-06 01:26 -33.39584 -70.79698 1565 ft 2 kts 177°
2026-05-06 01:26 -33.39598 -70.79697 1565 ft 1 kts 177°
2026-05-06 01:26 -33.39605 -70.79697 1565 ft 1 kts 177°
2026-05-06 01:26 -33.39606 -70.79697 1565 ft 0 kts 177°